Temperature
20 21 21 20 23 24 23 22 23 22 22 21 21 21 21 21 21 20 17 17 16 16 16 16 17 16 16 17 17 17 17 17 17 17 17 17 17 17 17 17 17 17 18 18 18 18 18 18 18
20 21 20 22 24 23 22 22 22 22 21 21 21 21 21 20 19 18 17 16 16 16 16 16 16 16 16 16 16 17 17 17 17 17 17 17 17 17 17 17 17 17 17 17 17 17 17 17 17
21 21 21 24 24 23 22 22 22 21 21 21 21 20 20 19 18 18 17 17 16 16 16 16 17 16 16 16 16 17 17 17 17 17 17 17 17 17 17 17 17 17 17 17 17 17 17 17 17
20 21 23 24 23 23 23 23 22 22 21 21 21 21 19 18 18 17 17 17 17 16 16 16 17 16 16 16 16 16 17 17 17 17 17 17 17 17 17 17 17 17 17 17 17 17 17 17 17
21 23 24 23 22 22 23 23 22 22 22 21 21 21 19 18 17 17 17 17 17 16 16 16 17 16 16 16 16 16 16 16 17 17 17 17 17 17 17 16 17 17 17 17 17 17 17 17 17
22 24 24 23 22 22 23 22 22 22 22 21 21 21 19 18 17 17 17 17 17 16 16 16 17 17 16 16 16 16 16 16 17 17 17 17 17 17 17 17 16 17 17 17 17 17 17 17 17
23 24 23 23 22 22 23 22 22 22 22 21 21 21 19 18 17 17 17 17 17 16 16 16 16 16 16 16 16 16 16 16 16 16 16 17 17 16 16 16 16 16 16 16 16 16 16 16 17
22 24 23 23 22 22 22 22 22 22 21 20 20 21 20 18 18 17 17 17 17 17 17 16 16 16 16 16 16 16 16 16 16 16 16 16 16 16 16 16 16 16 16 16 16 16 16 16 16
22 24 23 23 22 22 22 22 21 21 21 20 20 20 19 18 18 17 17 17 17 17 17 17 16 16 16 16 16 16 16 16 16 16 16 16 16 16 16 16 16 16 16 16 16 16 16 16 16
23 24 23 23 23 23 22 22 22 22 21 21 20 19 18 18 18 18 18 18 17 17 17 17 17 16 16 16 16 16 16 16 16 16 16 16 16 16 16 16 16 16 16 16 16 16 16 16 16
24 23 23 23 23 23 22 22 22 22 22 21 21 19 19 18 18 18 18 18 17 17 17 17 17 16 16 16 16 16 16 16 16 16 16 16 16 16 16 16 16 16 16 16 16 16 16 16 15
24 23 23 23 22 22 22 22 22 21 21 21 20 19 19 19 19 18 18 18 17 17 17 17 17 16 16 16 16 16 16 16 16 15 15 16 16 15 15 16 15 15 15 15 15 15 15 15 15
24 23 23 22 22 22 22 22 22 21 20 20 19 19 19 19 19 18 18 18 18 17 17 17 16 16 16 16 16 16 16 15 15 15 15 15 15 15 15 15 15 15 15 15 15 15 15 15 15
24 23 23 23 22 22 22 22 22 21 20 20 20 19 19 19 19 18 18 18 18 17 17 17 17 16 16 16 16 16 15 15 15 15 15 15 15 15 15 15 15 15 15 15 15 15 15 15 15
23 24 24 23 23 23 23 23 23 21 20 20 20 20 19 19 18 18 18 18 18 18 17 17 16 16 16 16 16 16 15 15 15 15 15 15 15 15 15 15 15 15 15 15 15 15 15 15 15
24 24 23 24 23 22 23 23 23 21 21 21 20 20 19 19 19 19 18 18 18 18 17 17 16 16 16 16 15 15 15 15 15 15 15 15 15 15 15 15 15 15 15 15 15 15 14 15 15
24 24 24 24 24 23 23 23 23 21 21 21 21 20 20 19 19 19 18 18 18 18 17 17 16 16 16 15 15 15 15 15 15 15 15 15 15 15 15 15 15 14 14 14 14 14 14 14 14
24 24 24 24 24 23 23 23 23 21 21 21 21 21 20 20 19 19 18 18 18 17 17 17 16 16 16 15 15 15 15 15 15 15 14 14 15 14 14 14 14 14 14 14 14 14 14 14 14
24 24 24 24 24 23 23 23 24 22 21 21 21 21 21 20 19 19 18 18 17 17 17 17 16 16 16 15 15 15 15 15 15 14 14 14 14 14 14 14 14 14 14 14 14 14 14 14 14
24 24 24 24 24 23 23 23 24 23 22 22 22 22 21 20 20 19 18 18 18 17 17 17 16 16 16 15 15 15 15 15 15 14 14 14 14 14 14 14 14 14 14 14 14 14 13 13 14
24 24 24 24 23 23 23 24 24 24 22 21 21 21 21 20 20 20 19 18 18 17 17 17 16 16 16 15 15 15 15 15 14 14 14 14 14 14 14 14 14 14 14 13 13 13 13 13 13
24 24 23 23 23 24 23 23 24 24 23 22 21 21 21 20 20 19 19 18 18 17 17 17 16 16 16 15 15 15 15 15 15 15 14 14 14 14 14 14 14 14 13 13 13 13 13 13 13
24 23 23 23 23 24 24 24 24 24 24 24 23 21 21 20 20 19 18 18 18 17 17 17 16 16 16 15 15 15 15 15 15 14 14 14 14 14 14 14 14 13 13 13 13 13 13 13 13
23 23 23 23 24 23 24 23 24 24 24 24 23 22 21 20 19 19 18 18 17 17 17 17 16 16 16 15 15 15 15 15 14 14 14 14 14 14 14 14 13 13 13 13 13 13 13 13 13
24 24 23 23 23 23 23 23 24 24 24 23 23 22 21 20 19 19 18 18 17 17 17 17 16 16 16 15 15 15 15 15 14 14 14 14 14 14 14 14 13 13 13 13 13 13 13 13 13
24 24 23 22 23 24 23 23 24 24 23 22 22 21 20 20 19 19 18 17 17 17 17 16 16 16 16 15 15 15 15 15 14 14 14 14 14 14 14 14 13 13 13 13 13 13 13 13 13
24 24 24 23 23 23 24 24 24 23 23 22 22 21 20 20 19 18 18 17 17 17 17 16 16 16 16 15 15 15 15 14 14 14 14 14 14 14 14 14 13 13 13 13 13 13 13 13 13
23 24 23 23 22 22 23 23 24 23 23 23 22 21 20 19 19 18 18 17 17 16 16 16 16 16 16 15 15 15 15 14 14 14 14 14 14 14 14 13 13 13 13 13 13 13 13 13 13
22 22 23 23 23 22 22 23 24 24 23 23 22 21 20 19 19 18 18 17 17 16 16 16 16 15 15 15 15 15 15 14 14 14 14 14 14 14 13 13 13 13 13 13 13 13 13 12 13
23 23 23 23 23 23 23 23 24 23 23 22 22 21 20 19 18 18 18 17 17 16 16 16 16 15 15 15 15 15 15 14 14 14 14 14 14 13 13 13 13 13 13 13 13 13 13 12 12
Wind_Speed
4 2 1 1 1 3 6 5 4 4 4 6 6 5 5 7 5 5 3 3 4 4 4 4 5 5 5 6 6 5 6 7 7 7 7 7 6 6 5 5 6 6 7 7 8 8 9 9 9
2 1 2 1 0 4 6 5 6 6 5 5 5 5 5 6 5 5 4 3 3 4 4 5 6 5 6 6 6 5 5 6 6 7 8 8 7 6 6 6 7 7 7 7 8 9 10 10 10
2 1 1 1 3 5 6 5 6 6 4 2 3 4 4 5 4 3 4 3 3 4 4 6 5 5 6 6 6 6 6 6 6 7 7 7 8 8 8 8 7 7 7 7 8 9 9 10 10
1 1 1 4 9 8 6 5 5 5 4 3 3 5 5 4 3 4 4 3 4 4 4 6 5 5 6 6 6 7 6 6 6 6 7 8 8 9 9 9 8 7 8 8 8 9 10 9 9
1 0 4 7 8 6 5 4 3 3 3 4 4 5 6 4 4 4 4 3 4 4 5 6 6 5 5 6 6 6 6 6 6 6 7 9 9 9 10 9 9 9 9 9 9 9 9 9 9
0 1 4 7 7 6 5 4 4 5 5 5 4 5 5 5 4 4 4 3 4 4 5 5 6 5 5 6 6 6 6 6 6 7 7 8 8 8 9 9 9 9 9 9 9 9 9 9 9
1 2 5 7 7 5 4 3 3 4 4 4 3 4 5 5 4 4 4 4 4 4 4 5 5 6 6 6 7 6 7 7 7 7 8 9 8 8 9 9 9 9 9 9 9 10 9 9 9
1 2 5 5 5 5 4 4 3 3 4 3 1 2 4 4 4 5 4 4 4 4 4 5 5 5 5 6 7 6 7 7 7 7 8 7 6 7 7 8 9 9 9 9 10 10 10 9 9
1 2 4 4 4 4 5 4 3 3 4 3 3 4 5 6 6 5 4 4 4 4 4 4 5 5 5 5 6 5 6 6 4 6 5 3 5 6 6 9 9 9 9 10 10 10 9 8 8
1 4 5 3 3 5 5 3 3 3 3 4 4 4 5 6 6 5 4 4 5 4 5 5 5 4 4 4 4 4 5 5 5 5 5 5 5 5 6 10 9 9 9 9 9 7 6 4 6
3 5 5 4 4 4 4 3 2 2 2 1 3 5 6 6 5 4 4 4 5 4 4 4 4 4 4 4 4 4 4 4 5 5 5 4 4 4 4 5 6 7 6 6 7 5 5 6 6
5 5 4 4 4 4 3 3 2 1 2 2 3 5 6 6 5 4 4 4 4 4 4 4 4 4 4 4 4 3 3 4 4 4 5 4 4 4 4 3 4 4 5 5 5 4 6 6 6
5 4 4 4 4 3 3 2 1 1 1 3 5 6 5 5 4 4 3 3 3 3 3 3 3 4 4 4 3 4 4 4 4 4 4 4 3 3 4 4 4 4 5 5 4 4 6 6 6
4 3 3 2 3 3 3 2 2 1 3 4 5 5 5 4 4 4 4 4 3 3 3 3 3 3 3 4 4 4 4 4 4 4 4 5 4 3 3 4 4 4 4 4 4 5 5 5 6
4 3 3 3 3 3 3 2 3 2 4 5 5 5 4 4 5 4 4 3 3 3 3 2 2 2 3 4 4 4 4 4 3 4 4 5 4 4 4 3 4 4 4 4 4 5 5 5 5
3 2 2 2 2 3 4 2 1 3 5 5 5 5 5 5 5 4 4 4 3 2 2 3 2 2 3 3 3 3 4 4 4 4 4 4 4 4 4 3 3 4 4 4 3 3 4 4 4
3 1 1 1 2 3 4 3 1 3 6 6 6 6 6 6 6 5 5 4 3 3 3 3 3 3 3 3 3 3 4 4 4 4 4 4 4 4 4 3 3 4 3 3 3 3 3 4 4
1 1 2 2 0 4 5 5 3 3 6 6 6 6 6 6 6 6 5 5 4 3 3 4 4 3 3 2 2 3 2 3 3 3 3 4 4 4 4 3 3 3 3 3 3 4 4 4 3
3 4 4 3 1 3 6 6 5 3 5 7 7 7 7 6 6 6 6 6 5 4 4 4 4 4 3 2 1 2 2 2 2 2 3 3 3 3 4 3 3 2 3 3 3 3 4 3 3
5 5 4 3 1 4 5 6 4 3 5 7 7 7 7 7 7 7 7 7 6 5 4 4 4 3 3 2 1 1 1 1 2 2 2 2 2 2 3 3 2 2 2 2 2 3 2 2 1
5 5 5 5 4 4 6 4 2 2 3 4 6 6 6 7 7 8 7 7 6 6 5 4 4 4 3 3 2 2 2 2 2 2 2 2 2 2 2 3 2 2 2 2 2 2 2 1 1
4 3 4 5 6 3 4 4 1 1 2 4 4 6 6 6 7 7 7 7 7 6 5 5 5 4 4 3 3 2 1 1 1 1 1 2 2 2 2 2 2 2 1 2 2 1 1 2 1
3 1 3 5 7 6 5 5 1 1 1 1 2 4 5 6 7 7 8 7 7 6 5 5 5 4 4 3 3 3 2 1 1 1 2 2 2 2 2 2 2 2 2 2 2 1 1 1 1
2 3 4 5 6 5 2 4 2 0 1 1 1 2 4 5 6 6 7 7 6 6 5 5 5 5 4 4 4 4 3 2 2 2 2 2 2 2 2 2 2 2 2 2 2 2 2 1 1
5 5 4 4 3 2 0 4 2 1 1 2 1 1 2 4 5 6 7 7 7 7 7 6 6 5 5 5 5 4 4 3 3 2 2 2 2 2 3 3 3 3 3 3 3 3 3 3 2
5 5 4 3 3 3 3 4 1 1 1 2 2 2 2 3 4 6 6 7 7 8 7 7 6 5 5 6 5 4 4 3 3 3 3 3 2 2 3 3 3 4 4 4 4 3 3 3 3
4 5 4 6 5 5 3 2 2 2 1 1 2 2 2 2 3 4 5 7 7 8 8 8 7 6 6 6 5 5 4 4 4 4 3 3 3 2 3 4 4 4 4 4 4 3 4 4 4
4 3 4 5 4 5 4 4 2 1 1 1 1 1 1 2 3 3 4 6 7 7 7 7 7 7 6 6 5 4 4 4 4 4 4 4 3 3 3 4 4 5 5 4 4 4 4 4 3
5 5 5 5 5 5 5 2 1 2 2 2 1 1 1 2 3 3 4 5 6 6 7 7 7 7 6 6 5 5 4 4 4 4 4 4 4 4 4 4 4 4 4 4 4 4 4 5 4
6 7 8 7 6 6 7 4 1 2 2 3 2 2 1 2 3 3 4 5 5 6 7 7 7 7 6 5 5 5 4 5 5 4 4 5 4 4 4 4 4 4 4 5 5 5 5 5 5
Wind_Direction
159 165 220 248 189 89 75 71 68 73 66 62 58 60 60 48 38 65 78 50 37 39 40 58 43 35 35 36 39 45 46 50 53 57 58 53 52 57 67 90 90 91 89 90 94 96 96 94 91
146 193 237 262 178 103 83 80 75 65 86 96 74 68 71 68 60 80 89 66 48 47 44 44 39 35 39 42 47 54 53 50 53 56 58 54 58 59 67 84 91 91 91 91 92 94 95 93 89
138 269 324 39 72 77 97 92 86 88 92 85 82 63 53 67 73 82 78 85 69 54 46 54 36 41 45 48 54 57 57 57 59 59 58 56 60 60 68 83 90 90 92 94 94 95 95 93 89
222 191 95 85 87 78 92 106 110 115 99 77 93 90 82 64 62 78 95 90 74 63 53 63 43 45 49 50 54 57 55 54 59 60 57 58 62 63 66 76 84 88 88 90 92 92 93 92 88
241 142 105 98 90 90 89 95 111 99 93 90 93 97 93 84 86 96 104 90 70 62 58 63 57 48 50 51 52 52 53 52 59 61 58 63 66 68 69 71 76 81 85 89 88 89 91 89 85
184 146 112 101 101 104 103 106 110 95 99 106 107 104 94 104 108 104 102 86 69 62 57 63 85 71 58 54 53 52 52 56 60 62 63 65 68 71 74 75 78 84 85 82 84 87 86 85 82
63 86 97 109 112 111 109 111 101 93 96 92 107 104 108 113 105 113 107 91 74 65 61 59 67 87 93 74 59 56 55 55 56 60 66 68 69 73 76 77 81 86 88 85 86 87 85 84 80
58 119 114 112 114 104 120 121 97 77 84 90 115 97 107 123 126 124 115 102 84 73 66 63 64 60 68 86 78 67 63 61 64 67 66 72 85 86 85 86 84 86 88 88 87 86 84 83 79
204 134 110 114 123 119 137 135 116 104 109 108 92 70 88 126 142 137 130 116 93 75 66 58 60 58 55 64 77 82 88 77 86 92 86 82 79 82 89 79 80 84 86 86 85 83 84 86 87
117 95 88 102 123 130 140 133 134 144 127 122 120 116 123 141 147 142 129 112 97 84 72 61 56 55 58 57 66 65 75 75 65 66 69 69 72 77 79 90 87 86 90 93 89 91 100 92 84
83 89 101 116 127 135 139 135 149 158 104 120 141 141 145 150 147 142 127 108 96 88 77 64 57 58 60 64 61 61 66 69 68 65 70 73 80 91 85 96 103 98 99 90 95 94 78 75 70
105 100 109 116 135 149 143 138 132 141 55 75 135 147 154 154 153 151 137 123 116 98 81 68 55 59 65 66 67 63 68 70 68 63 63 69 71 77 81 86 86 88 85 81 78 79 79 75 74
113 108 109 126 145 153 146 155 148 164 134 133 142 153 162 165 160 148 146 145 136 120 105 81 61 60 66 69 68 73 66 63 72 64 56 68 75 78 84 83 79 80 82 86 82 81 82 78 71
112 120 127 145 157 162 170 189 205 174 160 157 161 168 173 177 175 163 163 162 149 141 123 113 93 81 78 80 75 72 69 74 68 68 62 71 79 81 82 81 81 81 81 80 86 89 89 84 80
140 145 145 162 180 176 203 214 201 187 179 175 177 177 179 183 182 181 170 172 162 150 138 121 101 96 90 81 71 69 67 72 73 70 60 70 73 82 88 83 87 89 91 88 84 93 95 94 91
175 194 171 149 195 202 233 265 125 171 191 192 187 181 184 187 191 187 181 180 174 170 146 135 143 122 106 97 88 77 73 76 75 74 67 70 77 80 85 89 94 96 90 90 89 99 102 97 89
203 223 257 217 202 214 231 273 247 184 206 207 200 195 191 185 192 190 190 188 185 182 161 152 155 139 122 111 99 82 77 75 75 76 73 68 69 75 87 89 93 99 98 94 92 93 94 96 89
218 258 285 296 185 234 253 271 272 208 215 216 209 204 197 193 192 189 188 190 191 188 175 158 157 160 137 136 122 106 83 78 73 69 75 69 69 77 88 99 99 99 100 92 91 92 92 93 95
265 272 292 306 281 259 272 282 282 233 217 221 215 207 202 198 189 181 181 184 186 185 185 173 175 165 157 153 154 131 110 97 85 75 80 84 78 87 90 94 101 97 99 98 98 97 101 97 98
243 264 287 299 273 267 286 289 279 245 228 229 225 216 205 199 191 181 184 184 189 184 184 175 170 168 157 152 151 140 125 110 104 101 98 93 91 87 99 106 109 114 110 109 106 112 114 104 86
247 268 292 300 294 251 278 271 237 211 215 224 229 226 216 207 203 188 189 187 187 189 187 184 176 164 160 158 154 155 146 162 152 136 118 100 104 104 109 108 113 120 130 123 134 145 156 147 111
254 273 274 279 281 285 280 295 266 206 215 214 219 217 215 208 206 196 192 190 189 189 187 186 175 167 163 164 174 177 187 163 158 142 142 138 130 136 137 138 138 134 132 138 156 158 169 179 152
277 256 252 265 271 274 254 272 255 174 227 221 209 211 210 204 202 196 195 193 190 183 182 184 176 175 174 179 180 206 201 179 167 174 166 160 142 162 163 170 170 166 167 173 165 161 179 190 191
199 211 221 232 251 257 254 270 278 163 312 322 209 193 196 196 196 197 192 190 188 182 180 183 186 185 186 196 200 209 206 208 208 210 191 183 170 181 187 188 191 198 198 195 191 193 196 211 214
221 256 259 235 231 254 147 265 273 18 338 310 279 205 179 183 191 194 194 193 189 188 188 189 194 195 195 203 210 210 216 227 229 230 212 214 195 190 202 204 209 214 212 206 209 214 214 214 222
227 252 271 288 287 291 246 256 292 48 316 286 243 197 174 174 191 195 196 195 192 192 192 196 200 201 198 208 214 217 214 228 238 242 241 234 234 221 213 214 218 219 223 215 212 231 229 231 224
228 235 276 283 281 275 250 250 255 194 195 180 168 160 169 181 188 195 193 195 194 195 197 199 199 201 203 211 212 217 222 230 240 245 245 241 239 231 223 215 217 217 216 221 218 226 230 236 238
265 234 226 251 275 272 263 254 245 229 245 234 218 168 166 174 185 188 194 197 198 197 199 202 204 204 205 211 213 220 234 234 241 240 239 239 235 227 226 219 214 211 210 212 215 226 235 234 232
195 210 239 250 263 277 282 273 14 301 298 282 282 263 218 198 192 189 192 192 195 194 197 201 205 209 210 213 217 220 229 238 239 236 238 239 237 225 221 218 210 207 206 206 205 219 223 229 229
247 248 240 252 254 259 277 282 82 271 293 285 285 268 232 209 195 186 185 182 190 196 199 201 205 210 213 215 218 225 229 235 237 235 233 231 229 225 218 215 212 213 213 210 209 214 220 225 229
Height
1528 1527 1527 1528 1527 1527 1533 1535 1533 1534 1535 1538 1538 1537 1537 1538 1540 1547 1548 1545 1545 1544 1542 1541 1539 1539 1538 1537 1537 1536 1536 1535 1535 1534 1533 1532 1531 1530 1529 1530 1530 1531 1531 1532 1532 1532 1532 1532 1533
1528 1528 1530 1529 1526 1533 1539 1535 1535 1537 1539 1540 1540 1540 1539 1542 1544 1546 1546 1546 1545 1544 1543 1542 1540 1540 1539 1538 1538 1537 1537 1536 1536 1535 1534 1533 1532 1531 1530 1530 1531 1531 1532 1532 1533 1533 1533 1534 1534
1529 1529 1531 1527 1528 1534 1539 1537 1537 1539 1541 1540 1541 1542 1542 1544 1546 1547 1547 1546 1546 1545 1544 1543 1541 1541 1540 1539 1539 1538 1538 1537 1537 1536 1535 1534 1533 1532 1531 1531 1532 1532 1533 1534 1534 1535 1535 1535 1535
1530 1532 1531 1529 1535 1535 1535 1536 1538 1540 1541 1542 1541 1543 1545 1547 1547 1548 1547 1547 1547 1546 1545 1544 1542 1542 1541 1540 1540 1539 1539 1538 1538 1537 1536 1535 1534 1533 1533 1533 1533 1534 1534 1535 1535 1536 1536 1536 1536
1531 1531 1530 1534 1537 1537 1537 1538 1539 1539 1540 1542 1542 1543 1546 1548 1548 1548 1548 1548 1548 1547 1546 1545 1544 1543 1542 1542 1541 1540 1540 1539 1539 1538 1537 1536 1536 1536 1535 1535 1535 1535 1536 1536 1537 1537 1537 1538 1538
1533 1530 1532 1538 1539 1538 1539 1540 1540 1540 1541 1543 1544 1544 1547 1548 1548 1549 1548 1548 1548 1548 1547 1546 1545 1544 1543 1543 1542 1542 1541 1540 1540 1540 1539 1538 1538 1537 1537 1537 1537 1537 1537 1537 1538 1538 1539 1539 1539
1533 1530 1534 1537 1540 1539 1540 1541 1541 1541 1542 1544 1545 1544 1547 1549 1549 1549 1549 1549 1549 1549 1548 1548 1547 1546 1545 1544 1544 1543 1542 1542 1541 1541 1540 1540 1539 1539 1539 1539 1539 1539 1539 1539 1539 1540 1540 1540 1540
1534 1533 1535 1537 1540 1540 1541 1542 1543 1542 1543 1546 1546 1545 1547 1549 1549 1549 1550 1550 1550 1550 1549 1549 1548 1548 1547 1546 1545 1544 1543 1543 1542 1542 1542 1542 1541 1541 1541 1541 1541 1541 1541 1541 1541 1541 1541 1541 1541
1534 1533 1536 1538 1539 1540 1541 1542 1544 1545 1545 1546 1547 1547 1548 1549 1549 1550 1550 1551 1551 1550 1550 1550 1550 1549 1548 1548 1546 1545 1545 1544 1544 1544 1543 1543 1544 1543 1543 1543 1542 1542 1542 1543 1543 1543 1543 1543 1543
1534 1534 1537 1537 1538 1539 1541 1542 1543 1544 1544 1546 1547 1548 1548 1549 1550 1550 1551 1551 1551 1551 1551 1551 1550 1550 1549 1548 1548 1547 1547 1546 1546 1545 1545 1545 1545 1544 1544 1544 1544 1544 1544 1544 1544 1544 1544 1545 1545
1534 1535 1537 1538 1540 1541 1542 1543 1544 1543 1543 1545 1546 1548 1549 1549 1550 1551 1551 1552 1552 1552 1552 1552 1551 1551 1550 1549 1549 1548 1547 1546 1547 1546 1546 1546 1546 1546 1546 1546 1545 1545 1546 1546 1545 1546 1546 1546 1546
1536 1538 1539 1539 1541 1542 1542 1543 1544 1544 1545 1546 1547 1548 1549 1550 1550 1551 1551 1552 1553 1553 1553 1552 1552 1552 1551 1550 1549 1549 1548 1548 1548 1547 1547 1547 1547 1547 1547 1547 1547 1547 1547 1547 1547 1547 1547 1547 1547
1537 1539 1540 1541 1542 1542 1543 1543 1544 1545 1546 1546 1547 1548 1549 1549 1550 1551 1552 1552 1553 1553 1553 1553 1552 1552 1551 1551 1550 1550 1549 1549 1549 1548 1548 1548 1547 1548 1548 1548 1547 1548 1548 1548 1548 1548 1548 1548 1548
1539 1540 1540 1541 1542 1542 1542 1543 1544 1544 1545 1546 1547 1547 1548 1549 1550 1551 1552 1552 1553 1553 1553 1553 1553 1552 1552 1551 1551 1550 1550 1549 1549 1549 1549 1549 1548 1548 1548 1548 1548 1548 1548 1548 1548 1548 1548 1548 1548
1540 1540 1540 1541 1541 1541 1542 1541 1541 1543 1544 1545 1546 1547 1548 1549 1550 1550 1551 1552 1553 1553 1553 1553 1553 1553 1552 1552 1551 1551 1551 1551 1550 1550 1550 1549 1549 1549 1549 1549 1549 1549 1549 1549 1549 1549 1549 1549 1549
1538 1538 1540 1539 1540 1541 1543 1542 1540 1542 1543 1543 1544 1545 1546 1548 1549 1550 1551 1551 1552 1553 1553 1553 1552 1553 1552 1552 1552 1552 1551 1551 1551 1550 1550 1550 1550 1550 1549 1549 1549 1549 1549 1549 1549 1549 1549 1549 1550
1537 1539 1540 1538 1538 1539 1539 1539 1539 1541 1541 1541 1542 1543 1545 1546 1547 1549 1550 1551 1551 1552 1553 1553 1552 1553 1552 1552 1552 1552 1552 1551 1551 1551 1551 1550 1550 1550 1550 1549 1549 1549 1549 1549 1549 1549 1550 1550 1550
1540 1538 1538 1538 1536 1538 1537 1536 1536 1538 1539 1539 1540 1541 1543 1544 1546 1547 1548 1550 1550 1551 1552 1552 1552 1552 1552 1552 1552 1552 1552 1552 1552 1551 1551 1551 1551 1550 1550 1550 1550 1550 1549 1549 1549 1549 1549 1550 1550
1535 1537 1537 1535 1535 1537 1535 1533 1532 1535 1537 1537 1538 1539 1540 1542 1544 1546 1547 1548 1549 1550 1551 1551 1552 1552 1552 1552 1552 1552 1552 1552 1552 1552 1551 1551 1551 1551 1550 1550 1550 1550 1550 1549 1549 1549 1550 1550 1550
1535 1537 1535 1534 1534 1535 1533 1531 1529 1531 1533 1534 1535 1536 1538 1540 1542 1544 1545 1546 1548 1549 1550 1551 1551 1551 1551 1551 1552 1552 1552 1552 1552 1552 1551 1551 1551 1551 1551 1550 1550 1550 1549 1549 1549 1549 1550 1550 1550
1535 1535 1535 1535 1534 1532 1533 1530 1527 1528 1531 1533 1534 1534 1535 1538 1540 1542 1543 1545 1546 1547 1548 1549 1550 1550 1550 1551 1551 1551 1552 1552 1552 1552 1551 1551 1551 1550 1550 1550 1550 1550 1550 1550 1550 1550 1550 1550 1551
1535 1532 1534 1535 1535 1533 1533 1535 1525 1524 1526 1529 1531 1532 1534 1536 1538 1540 1541 1543 1545 1546 1547 1548 1549 1550 1550 1550 1551 1551 1552 1552 1552 1552 1551 1551 1550 1550 1550 1550 1550 1550 1550 1550 1550 1551 1551 1551 1551
1531 1533 1533 1533 1533 1532 1530 1532 1525 1522 1524 1524 1527 1530 1531 1534 1535 1537 1539 1541 1543 1544 1545 1547 1548 1548 1549 1549 1550 1550 1551 1551 1551 1551 1551 1550 1550 1550 1550 1550 1550 1551 1550 1550 1550 1551 1551 1551 1551
1532 1533 1532 1531 1530 1537 1530 1532 1528 1521 1522 1522 1525 1527 1530 1532 1533 1535 1537 1539 1541 1542 1543 1545 1546 1547 1547 1548 1548 1549 1549 1550 1550 1550 1550 1550 1549 1549 1549 1549 1550 1550 1550 1550 1550 1550 1550 1550 1550
1531 1533 1538 1538 1538 1534 1528 1531 1526 1519 1521 1523 1524 1526 1528 1530 1531 1533 1535 1536 1538 1540 1541 1543 1544 1545 1545 1546 1547 1548 1548 1548 1549 1549 1549 1549 1549 1548 1548 1549 1549 1549 1549 1549 1550 1550 1550 1550 1550
1528 1530 1540 1545 1540 1532 1528 1529 1521 1520 1522 1524 1524 1526 1527 1528 1530 1531 1532 1534 1535 1537 1539 1540 1542 1543 1544 1545 1546 1546 1547 1546 1547 1547 1547 1547 1547 1547 1547 1547 1548 1548 1548 1548 1548 1549 1549 1549 1549
1528 1528 1526 1531 1531 1535 1526 1522 1519 1519 1520 1522 1523 1525 1526 1527 1528 1529 1530 1532 1533 1535 1536 1538 1540 1541 1542 1543 1543 1544 1545 1545 1545 1545 1545 1545 1545 1545 1545 1545 1546 1546 1546 1547 1547 1547 1548 1548 1548
1527 1525 1529 1532 1539 1538 1530 1525 1521 1518 1518 1520 1521 1523 1525 1526 1527 1528 1528 1529 1531 1533 1534 1536 1537 1539 1539 1540 1541 1541 1542 1542 1542 1543 1543 1543 1543 1543 1543 1544 1544 1544 1544 1545 1545 1545 1545 1546 1546
1528 1529 1527 1527 1529 1535 1535 1526 1514 1516 1517 1518 1520 1522 1523 1524 1525 1526 1527 1527 1529 1530 1532 1533 1535 1536 1537 1538 1539 1539 1539 1540 1540 1540 1540 1540 1541 1541 1541 1541 1541 1542 1542 1543 1543 1543 1543 1544 1544
1524 1523 1524 1530 1529 1528 1529 1525 1513 1516 1517 1518 1519 1521 1522 1522 1523 1524 1525 1526 1527 1528 1529 1531 1532 1533 1534 1535 1536 1536 1537 1537 1537 1537 1538 1538 1538 1538 1539 1539 1539 1540 1540 1540 1541 1541 1541 1541 1542